This is the latest recevied weather packets stored in our database for station/object KD7ECD. If no packets are shown the sender has not sent any weather packets the latest 1 day(s).
| Time | Temp. | Humidity | Pressure | Rain* | Wind** | Luminosity | Snow |
|---|---|---|---|---|---|---|---|
| 1778015490 | 14.44° C | 83% | 1018.5 hPa | 0 mm | 3.13 m/s, 234° | 186 W/m² | - |
| 1778014889 | 13.89° C | 83% | 1018.6 hPa | 0 mm | 2.68 m/s, 198° | 226 W/m² | - |
| 1778014285 | 13.89° C | 85% | 1018.5 hPa | 0 mm | 3.13 m/s, 233° | 169 W/m² | - |
| 1778013685 | 13.89° C | 86% | 1018.6 hPa | 0 mm | 3.13 m/s, 215° | 155 W/m² | - |
| 1778013084 | 13.33° C | 87% | 1018.7 hPa | 0 mm | 2.68 m/s, 221° | 146 W/m² | - |
| 1778012482 | 13.33° C | 88% | 1018.6 hPa | 0 mm | 2.68 m/s, 191° | 152 W/m² | - |
| 1778011883 | 12.78° C | 90% | 1018.7 hPa | 0 mm | 1.34 m/s, 209° | 160 W/m² | - |
| 1778011277 | 12.78° C | 91% | 1018.5 hPa | 0 mm | 2.68 m/s, 197° | 189 W/m² | - |
| 1778010677 | 12.78° C | 92% | 1018.8 hPa | 0 mm | 2.24 m/s, 192° | 106 W/m² | - |
| 1778010075 | 12.22° C | 94% | 1018.8 hPa | 0 mm | 2.68 m/s, 192° | 124 W/m² | - |
| 1778009475 | 12.22° C | 95% | 1019 hPa | 0 mm | 2.24 m/s, 183° | 125 W/m² | - |
| 1778008871 | 12.22° C | 94% | 1018.7 hPa | 0 mm | 4.02 m/s, 193° | 146 W/m² | - |
| 1778008267 | 12.78° C | 94% | 1018.9 hPa | 0 mm | 2.68 m/s, 203° | 167 W/m² | - |
| 1778007663 | 12.78° C | 93% | 1018.7 hPa | 0 mm | 3.58 m/s, 208° | 274 W/m² | - |
| 1778007063 | 12.78° C | 93% | 1018.6 hPa | 0 mm | 4.02 m/s, 199° | 337 W/m² | - |
| 1778006462 | 12.22° C | 95% | 1018.6 hPa | 0 mm | 3.13 m/s, 203° | 373 W/m² | - |
| 1778005862 | 12.22° C | 95% | 1018.6 hPa | 0 mm | 3.13 m/s, 208° | 367 W/m² | - |
| 1778005261 | 12.22° C | 97% | 1018.5 hPa | 0 mm | 3.58 m/s, 211° | 419 W/m² | - |
| 1778004661 | 11.67° C | 97% | 1018.6 hPa | 0 mm | 2.68 m/s, 206° | 284 W/m² | - |
| 1778004060 | 11.67° C | 97% | 1018.6 hPa | 0 mm | 3.58 m/s, 199° | 141 W/m² | - |
| 1778003458 | 11.67° C | 97% | 1018.5 hPa | 0 mm | 3.58 m/s, 199° | 195 W/m² | - |
| 1778002856 | 11.67° C | 97% | 1018.3 hPa | 0 mm | 2.24 m/s, 202° | 159 W/m² | - |
| 1778002256 | 11.67° C | 96% | 1018.3 hPa | 0 mm | 3.13 m/s, 190° | 164 W/m² | - |
| 1778001650 | 11.67° C | 96% | 1018.1 hPa | 0 mm | 1.34 m/s, 212° | 125 W/m² | - |
| 1778001048 | 11.67° C | 95% | 1017.9 hPa | 0 mm | 2.68 m/s, 220° | 94 W/m² | - |
* Rain latest hour (hover to see other rain measurements)
** Current wind speed in m/s (hover to see current wind gust speed)